Regional Weather Roundup
Issued by NWS

Home | Current Version | Previous Version | Text Only | Print | Product List | Glossary On
Versions: 1 2 3 4 5 6 7 8 9 10 11 12 13 14 15 16 17 18 19 20 21 22 23 24 25 26 27 28 29 30 31 32 33 34 35 36 37 38 39 40 41 42 43 44 45 46 47 48 49 50
000
ASUS43 KOAX 242202
RWRNE

WEATHER ROUNDUP FOR NEBRASKA
NATIONAL WEATHER SERVICE OMAHA NE
500 PM CDT MON APR 24 2017

NOTES: SATELLITE DATA IS BEING USED TO AUGMENT CLOUD COVER ABOVE
       12000 FEET.
       "FAIR" INDICATES FEW OR NO CLOUDS BELOW 12,000 FEET WITH NO
       SIGNIFICANT WEATHER AND/OR OBSTRUCTIONS TO VISIBILITY.

  * THESE STATIONS DO NOT REPORT WEATHER SUCH AS RAIN...SNOW OR FOG.

NEZ001>004-019>022-054>056-242300-
NEBRASKA PANHANDLE

CITY           SKY/WX    TMP DP  RH WIND       PRES   REMARKS
SCOTTSBLUFF    CLOUDY    68  29  23 N8        29.55F
ALLIANCE       MOSUNNY   64  32  30 N7        29.55F
CHADRON        MOSUNNY   65  33  30 NW10G20   29.54F
KIMBALL        CLOUDY    63  31  31 W15G23    29.61S
SIDNEY         CLOUDY    66  32  28 N8        29.59F
$$

NEZ057>060-069>072-079>082-242300-
SOUTHWEST NEBRASKA

CITY           SKY/WX    TMP DP  RH WIND       PRES   REMARKS
NORTH PLATTE   CLOUDY    73  41  31 N12       29.52F
IMPERIAL       MOSUNNY   70  35  27 NW13G18   29.54F
LEXINGTON      SUNNY     71  43  37 NW15      29.53S
MCCOOK         MOSUNNY   77  42  28 N17       29.50F
OGALLALA       PTSUNNY   71  29  21 N10       29.55S
$$

NEZ005>010-023>029-035>040-094-242300-
NORTH CENTRAL NEBRASKA

CITY           SKY/WX    TMP DP  RH WIND       PRES   REMARKS
VALENTINE      SUNNY     60  39  45 N15G32    29.59R
AINSWORTH      SUNNY     56  42  58 NW12G18   29.58R
BROKEN BOW     SUNNY     66  41  40 N14       29.54F
O`NEILL        SUNNY     62  41  47 NW13G21   29.55F
ORD            SUNNY     68  43  40 VRB5      29.50F
THEDFORD         N/A    N/A N/A N/A MISG        N/A
$$

NEZ041-046>049-061>064-073>077-083>087-242300-
SOUTH CENTRAL NEBRASKA

CITY           SKY/WX    TMP DP  RH WIND       PRES   REMARKS
GRAND ISLAND   CLOUDY    73  41  31 W12       29.49F
AURORA         SUNNY     74  40  30 SW10G16   29.48F
HASTINGS       MOSUNNY   76  41  28 MISG      29.49F
HEBRON         SUNNY     74  44  33 S15G25    29.49F
HOLDREGE       SUNNY     71  40  31 N13       29.51S
KEARNEY *      MOSUNNY   72  39  30 NW10G16   29.52S
YORK           SUNNY     73  41  31 SW16      29.49F
$$

NEZ011>018-030>034-042>045-242300-
NORTHEAST NEBRASKA

CITY           SKY/WX    TMP DP  RH WIND       PRES   REMARKS
NORFOLK        MOSUNNY   71  40  32 W10       29.50F
ALBION         MOSUNNY   69  41  35 SW9G16    29.51F
BLAIR          CLOUDY    74  41  29 S23G36    29.51F
FREMONT        SUNNY     74  42  31 S21       29.51F
TEKAMAH        MOSUNNY   74  41  30 S26G33    29.50F
WAYNE          CLOUDY    70  45  40 W13       29.51S
$$

NEZ050>053-065>068-078-088>093-242300-
SOUTHEAST NEBRASKA

CITY           SKY/WX    TMP DP  RH WIND       PRES   REMARKS
LINCOLN        MOSUNNY   76  45  33 S21G29    29.51F
OMAHA EPPLEY   CLOUDY    75  40  28 S20G31    29.52F
BEATRICE       PTSUNNY   74  48  39 SW25G33   29.52F
FALLS CITY     PTSUNNY   73  42  32 S22G33    29.57F
NEBRASKA CITY  CLOUDY    71  30  21 S23G35    29.55F
PLATTSMOUTH    CLOUDY    74  31  20 S21G32    29.54F
$$

NEZ044-045-051>053-067-242300-
OMAHA AREA

CITY           SKY/WX    TMP DP  RH WIND       PRES   REMARKS
OMAHA EPPLEY   CLOUDY    75  40  28 S20G31    29.52F
BLAIR          CLOUDY    74  41  29 S23G36    29.51F
FREMONT        SUNNY     74  42  31 S21       29.51F
MILLARD        CLOUDY    76  44  32 SE18G25   29.51F
OFFUTT AFB     PTSUNNY   74  39  27 S22G33    29.52F
PLATTSMOUTH    CLOUDY    74  31  20 S21G32    29.54F
WAHOO          FAIR      74  41  29 S23G33    29.51F
$$




USA.gov is the U.S. government's official web portal to all federal, state and local government web resources and services.